Home   Weather   St. John's   Past weeks

Flag for Canada Past Weather in St. John's, Newfoundland and Labrador, Canada — Yesterday and Last 2 Weeks

Now
30 °F

Light freezing rain. Ice fog.


Feels Like: 25 °F
Forecast: 36 / 55 °F
Wind: 5 mph from East

Location: St. John's

Current Time: Apr 27, 2017 at 10:35:03 pm

Latest Report: Apr 27, 2017 at 9:30 pm


Visibility: 0 mi

Pressure: 30.38 "Hg

Humidity: 100%

Dew Point: 30 °F

Location of St. John'sLocation

Past Weather in St. John's — Graph

°F

St. John's Temperature Yesterday

Maximum temperature yesterday: 46 °F (at 1:30 pm)
Minimum temperature yesterday: 25 °F (at 5:30 am)
Average temperature yesterday: 37 °F

High & Low Weather Summary for the Past Weeks

 TemperatureHumidityPressure
High54 °F (Apr 27, 11:30 am)100% (Apr 12, 8:30 pm)30.53 "Hg (Apr 12, 8:30 pm)
Low23 °F (Apr 18, 5:39 am)33% (Apr 26, 8:30 pm)29.66 "Hg (Apr 17, 4:46 pm)
Average33 °F85%30.13 "Hg
* Reported Apr 12 8:30 pm — Apr 27 8:30 pm, St. John's, Weather by CustomWeather, © 2017

Note: Actual official high and low records may vary slightly from our data, if they occured in-between our weather recording intervals... More about our weather records

Advertising

St. John's Weather History for the Previous 24 Hours

Scroll right to see more
 ConditionsComfort  
Time TempWeatherWind HumidityBarometerVisibility
8:30 pm
Thu, Apr 27
30 °FLight freezing rain. Ice fog.6 mph100%30.37 "Hg1 mi
7:30 pm32 °FLight freezing rain. Ice fog.8 mph93%30.38 "Hg1 mi
6:40 pm32 °FLight freezing rain. Ice fog.7 mph93%30.39 "Hg0 mi
6:30 pm32 °FDrizzle. Fog.8 mph100%30.38 "Hg0 mi
5:30 pm32 °FDrizzle. Fog.8 mph100%30.38 "Hg0 mi
4:30 pm34 °FDrizzle. Fog.7 mph100%30.38 "Hg0 mi
3:30 pm36 °FDrizzle. Fog.8 mph100%30.37 "Hg0 mi
3:06 pm36 °FDrizzle. Fog.10 mph93%30.38 "Hg0 mi
2:38 pm46 °FDrizzle. Fog.5 mph100%30.36 "Hg0 mi
2:12 pm46 °FLight rain. Low clouds.10 mph93%30.35 "Hg1 mi
1:41 pm48 °FDrizzle. Overcast.14 mph94%30.34 "Hg10 mi
12:30 pm52 °FOvercast.18 mph88%30.32 "Hg15 mi
11:30 am54 °FOvercast.21 mph82%30.31 "Hg15 mi
10:30 am52 °FMostly cloudy.26 mph88%30.30 "Hg15 mi
9:30 am50 °FMostly cloudy.26 mph88%30.28 "Hg15 mi
8:30 am48 °FMostly cloudy.28 mph94%30.29 "Hg15 mi
7:30 am48 °FOvercast.24 mph87%30.29 "Hg15 mi
6:43 am46 °FLow clouds.26 mph87%30.28 "Hg12 mi
5:41 am45 °FMostly cloudy.21 mph93%30.29 "Hg15 mi
4:40 am43 °FLow clouds.20 mph93%30.29 "Hg15 mi
4:30 am43 °FPartly cloudy.17 mph87%30.29 "Hg15 mi
3:30 am43 °FSprinkles. Overcast.21 mph87%30.32 "Hg15 mi
3:19 am43 °FSprinkles. Overcast.21 mph87%30.32 "Hg15 mi
3:01 am43 °FOvercast.21 mph81%30.32 "Hg15 mi
1:52 am41 °FSprinkles. Overcast.21 mph81%30.36 "Hg15 mi
1:32 am41 °FSprinkles. Overcast.24 mph81%30.37 "Hg15 mi
12:30 am39 °FOvercast.23 mph65%30.40 "Hg15 mi
11:30 pm
Wed, Apr 26
37 °FOvercast.18 mph52%30.42 "Hg15 mi
10:30 pm37 °FMostly cloudy.18 mph35%30.43 "Hg15 mi
Weather by CustomWeather, © 2017

See weather overviewHow to use our weather pages